Location: Bottens
(46.6171°N, 6.6605°E)
Time: 09:51:52
(UTC+00:00)

Cosmos 1825 - Pass Details

Date: 25 October 2021
Orbit: 501 x 504 km, 82.5° (Epoch: 28 November)

Event Time Altitude Azimuth Distance (km) Brightness Sun altitude
Rises 19:12:06 0° 342° (NNW) 2,608 6.2 -28.5°
Reaches altitude 10° 19:14:21 10° 333° (NNW) 1,719 5.3 -28.9°
Enters shadow 19:16:17 24° 311° (NW) 1,078 4.3 -29.2°
